Regional Weather Roundup
Issued by NWS

Home | Current Version | Previous Version | Graphics & Text | Print | Product List | Glossary On
Versions: 1 2 3 4 5 6 7 8 9 10 11 12 13 14 15 16 17 18 19 20 21 22 23 24 25 26 27 28 29 30 31 32 33 34 35 36 37 38 39 40 41 42 43 44 45 46 47 48 49 50
000
ASUS43 KLSX 200157
RWRMO

WEATHER SUMMARY FOR MISSOURI
NATIONAL WEATHER SERVICE SPRINGFIELD MO
900 PM CDT THU OCT 19 2017

NOTE: "FAIR" INDICATES FEW OR NO CLOUDS BELOW 12,000 FEET WITH NO
       SIGNIFICANT WEATHER AND/OR OBSTRUCTIONS TO VISIBILITY.
       CURRENT SKY AND/OR WEATHER CONDITIONS ARE NOT AVAILABLE FOR
       CHILLICOTHE AND FARMINGTON.

MOZ001>031-035>038-043-044-053-054-200300-
...NORTHERN AND WESTERN MISSOURI...

CITY           SKY/WX    TMP DP  RH WIND       PRES   REMARKS
KANSAS CTY INT CLOUDY    62  54  74 S12       30.06S
LEE`S SUMMIT   CLEAR     67  54  63 S13       30.08S
ST JOSEPH      PTCLDY    64  53  67 S8        30.04S
CHILLICOTHE      N/A     65  53  65 S3        30.09R

$$
MOZ066>068-077>081-088>096-101>105-200300-
...SOUTHWEST MISSOURI...

CITY           SKY/WX    TMP DP  RH WIND       PRES   REMARKS
SPRINGFIELD    PTCLDY    66  49  54 S10       30.13S
JOPLIN         PTCLDY    62  52  69 S6        30.12S
BRANSON        PTCLDY    64  48  55 S6        30.17S

$$
MOZ032>034-039>042-045>050-055>058-069>072-200300-
...CENTRAL MISSOURI...

CITY           SKY/WX    TMP DP  RH WIND       PRES   REMARKS
COLUMBIA       NOT AVBL
JEFFERSON CITY CLOUDY    60  53  77 E3        30.11S
ROLLA          CLEAR     65  48  54 S9        30.15S
SEDALIA        CLOUDY    62  54  74 SE5       30.11F
WARRENSBURG    CLOUDY    63  52  67 SE5       30.09S

$$
MOZ051-052-059>065-200300-
...EAST CENTRAL MISSOURI...

CITY           SKY/WX    TMP DP  RH WIND       PRES   REMARKS
ST LOUIS INTL  NOT AVBL

$$
MOZ072>076-082>087-097>100-106>115-200300-
...SOUTH CENTRAL AND SOUTHEAST MISSOURI...

CITY           SKY/WX    TMP DP  RH WIND       PRES   REMARKS
CAPE GIRARDEAU CLEAR     59  49  69 S7        30.19S
POPLAR BLUFF   CLEAR     57  52  83 CALM      30.18S
WEST PLAINS    CLEAR     66  48  52 S7        30.19S

$$



USA.gov is the U.S. government's official web portal to all federal, state and local government web resources and services.